FW6327 Weather Reports


Display with metric or nautical units.
time (UTC)temp
F
wind
direction
speed
MPH
gust
MPH
rain 1hr
in
rain 24hr
in
rain mn
in
humidity
%
barometer
mb
20200401114037 39 323 3.0 6.0 0.05 0.06 0.06 91 1010.8
20200401113536 39 349 1.0 4.0 0.05 0.06 0.06 90 1010.9
20200401113041 39 20 1.0 4.0 0.05 0.06 0.06 91 1010.9
20200401112559 38 355 1.0 5.0 0.05 0.06 0.06 91 1010.8
20200401112033 38 314 2.0 6.0 0.05 0.06 0.06 91 1011.0
20200401111617 38 350 3.0 9.0 0.05 0.05 0.05 91 1010.9
20200401111038 37 321 4.0 9.0 0.03 0.03 0.03 91 1011.2
20200401110534 37 304 1.0 6.0 0.02 0.02 0.02 91 1011.3
20200401110044 37 335 2.0 6.0 0.02 0.02 0.02 90 1011.4
20200401105027 38 318 1.0 4.0 0.02 0.02 0.02 89 1011.2
20200401104539 38 281 1.0 7.0 0.02 0.02 0.02 89 1011.1
20200401104029 38 331 2.0 7.0 0.02 0.02 0.02 90 1011.1
20200401103525 38 360 1.0 5.0 0.02 0.02 0.02 90 1011.3
20200401103113 38 360 1.0 8.0 0.02 0.02 0.02 89 1011.2
20200401102021 38 351 3.0 8.0 0.01 0.01 0.01 89 1011.3
20200401101559 38 305 2.0 8.0 0.00 0.00 0.00 88 1011.4
20200401101027 38 53 2.0 5.0 0.00 0.00 0.00 87 1011.3
20200401100517 38 355 1.0 5.0 0.00 0.00 0.00 87 1011.4
20200401100036 38 338 2.0 5.0 0.00 0.00 0.00 88 1011.3
20200401095019 37 13 3.0 6.0 0.00 0.00 0.00 88 1011.3
20200401094559 37 5 2.0 6.0 0.00 0.00 0.00 88 1011.5
20200401094024 37 10 2.0 5.0 0.00 0.00 0.00 88 1011.4
20200401093525 37 333 2.0 5.0 0.00 0.00 0.00 88 1011.5
20200401092520 36 346 2.0 6.0 0.00 0.00 0.00 89 1011.4
20200401092021 36 360 2.0 4.0 0.00 0.00 0.00 88 1011.3
20200401091016 36 11 2.0 5.0 0.00 0.00 0.00 88 1011.7
20200401090512 36 346 3.0 5.0 0.00 0.00 0.00 88 1011.7
20200401090013 36 17 2.0 5.0 0.00 0.00 0.00 88 1011.5
20200401085013 36 32 2.0 5.0 0.00 0.00 0.00 88 1011.6
20200401084511 36 360 2.0 5.0 0.00 0.00 0.00 88 1011.5
20200401084008 36 5 1.0 9.0 0.00 0.00 0.00 88 1011.5
20200401083508 36 32 3.0 9.0 0.00 0.00 0.00 88 1011.8
20200401083019 35 5 4.0 8.0 0.00 0.00 0.00 89 1011.8
20200401082004 35 304 4.0 8.0 0.00 0.00 0.00 88 1012.0
20200401081508 35 65 3.0 8.0 0.00 0.00 0.00 88 1012.2
20200401081007 35 304 2.0 8.0 0.00 0.00 0.00 88 1012.3
20200401080503 35 355 3.0 8.0 0.00 0.00 0.00 88 1012.2
20200401075106 35 37 5.0 9.0 0.00 0.00 0.00 88 1012.2
20200401074641 35 5 2.0 10.0 0.00 0.00 0.00 88 1012.4
20200401074057 35 27 4.0 10.0 0.00 0.00 0.00 87 1012.4
20200401073638 36 9 5.0 11.0 0.00 0.00 0.00 87 1012.4
20200401073203 36 26 4.0 11.0 0.00 0.00 0.00 87 1012.4
20200401072556 36 360 6.0 11.0 0.00 0.00 0.00 87 1012.4
20200401072209 36 36 7.0 11.0 0.00 0.00 0.00 87 1012.5
20200401072100 36 339 6.0 11.0 0.00 0.00 0.00 87 1012.5
20200401071052 36 11 5.0 12.0 0.00 0.00 0.00 87 1012.4
20200401070640 36 333 5.0 11.0 0.00 0.00 0.00 87 1012.4
20200401070139 36 360 6.0 13.0 0.00 0.00 0.00 87 1012.5
20200401065059 36 342 3.0 8.0 0.00 0.00 0.00 86 1012.6
20200401064734 36 28 2.0 8.0 0.00 0.00 0.00 86 1012.6
20200401064049 36 68 3.0 10.0 0.00 0.00 0.00 86 1012.7
20200401063549 36 16 3.0 9.0 0.00 0.00 0.00 86 1012.6
20200401063116 37 82 0.0 9.0 0.00 0.00 0.00 85 1012.6
20200401062547 37 20 3.0 10.0 0.00 0.00 0.00 85 1012.6
20200401062046 37 5 2.0 10.0 0.00 0.00 0.00 85 1012.7
20200401061747 37 28 3.0 10.0 0.00 0.00 0.00 86 1012.6
20200401061045 37 342 3.0 10.0 0.00 0.00 0.00 85 1012.6
20200401060546 37 26 2.0 5.0 0.00 0.00 0.00 85 1012.7
20200401060129 36 292 2.0 6.0 0.00 0.00 0.00 86 1012.7
20200401055046 36 322 2.0 5.0 0.00 0.00 0.00 86 1012.7
20200401054641 36 350 2.0 9.0 0.00 0.00 0.00 86 1012.8
20200401054039 36 321 3.0 9.0 0.00 0.00 0.00 86 1012.7
20200401053546 36 336 1.0 8.0 0.00 0.00 0.00 86 1012.7
20200401053128 36 28 4.0 8.0 0.00 0.00 0.00 86 1012.7
20200401052537 36 344 2.0 6.0 0.00 0.00 0.00 86 1012.9
20200401052042 36 5 2.0 9.0 0.00 0.00 0.00 86 1013.0
20200401051601 35 355 4.0 8.0 0.00 0.00 0.00 86 1012.9
20200401051048 35 331 4.0 8.0 0.00 0.00 0.00 86 1013.0
20200401050530 35 10 2.0 6.0 0.00 0.00 0.00 87 1013.0
20200401050056 34 316 2.0 6.0 0.00 0.00 0.00 88 1013.1
20200401045027 31 355 3.0 5.0 0.00 0.00 0.00 90 1013.1
20200401044600 31 19 0.0 2.0 0.00 0.00 0.00 89 1013.3
20200401044034 31 57 0.0 2.0 0.00 0.00 0.00 89 1013.3
20200401043524 31 35 1.0 2.0 0.00 0.00 0.00 89 1013.3
20200401043023 31 5 0.0 2.0 0.00 0.00 0.00 89 1013.2
20200401042521 31 13 0.0 2.0 0.00 0.00 0.00 88 1013.2
20200401042028 31 11 0.0 1.0 0.00 0.00 0.00 88 1013.2
20200401041522 31 46 0.0 0.0 0.00 0.00 0.00 88 1013.3
20200401041021 31 46 0.0 1.0 0.00 0.00 0.00 88 1013.1
20200401040524 32 46 0.0 1.0 0.00 0.00 0.00 88 1013.1
20200401040039 32 48 0.0 2.0 0.00 0.00 0.00 87 1013.2
20200401035018 32 48 0.0 1.0 0.00 0.00 0.00 87 1013.3
20200401034533 32 48 0.0 0.0 0.00 0.00 0.00 87 1013.3
20200401034016 32 48 0.0 0.0 0.00 0.00 0.00 86 1013.3
20200401033529 33 48 0.0 1.0 0.00 0.00 0.00 86 1013.4
20200401033015 33 47 0.0 1.0 0.00 0.00 0.00 85 1013.5
20200401032525 33 48 0.0 4.0 0.00 0.00 0.00 86 1013.6
20200401032011 33 48 1.0 4.0 0.00 0.00 0.00 85 1013.5
20200401031528 33 43 2.0 4.0 0.00 0.00 0.00 85 1013.5
20200401031010 33 51 2.0 4.0 0.00 0.00 0.00 85 1013.6
20200401030020 33 49 2.0 4.0 0.00 0.00 0.00 84 1013.5
20200401025008 33 34 2.0 5.0 0.00 0.00 0.00 84 1013.7
20200401024503 33 23 2.0 5.0 0.00 0.00 0.00 84 1013.8
20200401024002 33 38 2.0 6.0 0.00 0.00 0.00 83 1013.7
20200401023505 33 36 3.0 6.0 0.00 0.00 0.00 84 1013.8
20200401023002 33 31 2.0 5.0 0.00 0.00 0.00 84 1013.9
20200401022059 33 36 2.0 6.0 0.00 0.00 0.00 84 1014.0
20200401021805 33 10 2.0 6.0 0.00 0.00 0.00 84 1013.9
20200401021059 33 19 3.0 5.0 0.00 0.00 0.00 85 1013.9
20200401020603 32 28 2.0 4.0 0.00 0.00 0.00 85 1014.0
20200401020131 32 26 2.0 4.0 0.00 0.00 0.00 85 1014.0
20200401015119 32 5 1.0 3.0 0.00 0.00 0.00 85 1014.0
20200401014654 32 5 1.0 3.0 0.00 0.00 0.00 84 1013.9
20200401014056 32 21 1.0 3.0 0.00 0.00 0.00 85 1013.7
20200401013555 32 37 1.0 3.0 0.00 0.00 0.00 84 1013.7
20200401012556 33 14 1.0 3.0 0.00 0.00 0.00 84 1013.9
20200401012112 33 24 1.0 3.0 0.00 0.00 0.00 84 1013.8
20200401011556 33 21 2.0 7.0 0.00 0.00 0.00 84 1013.7
20200401011052 33 42 2.0 7.0 0.00 0.00 0.00 84 1013.9
20200401010551 33 55 3.0 6.0 0.00 0.00 0.00 83 1013.9
20200401010129 33 13 1.0 6.0 0.00 0.00 0.00 83 1013.8
20200401005048 33 333 3.0 9.0 0.00 0.00 0.00 83 1013.9
20200401004628 33 61 4.0 9.0 0.00 0.00 0.00 83 1013.9
20200401003547 33 89 4.0 11.0 0.00 0.00 0.00 83 1013.9
20200401003107 33 38 5.0 11.0 0.00 0.00 0.00 83 1013.9
20200401002546 33 41 3.0 5.0 0.00 0.00 0.00 83 1013.8
20200401002102 33 101 2.0 8.0 0.00 0.00 0.00 83 1013.8
20200401001643 33 51 5.0 10.0 0.00 0.00 0.00 83 1013.8
20200401001049 33 67 2.0 10.0 0.00 0.00 0.00 83 1013.8
20200401000052 33 67 3.0 8.0 0.00 0.00 0.00 82 1013.8
20200331235046 33 58 3.0 12.0 0.00 0.00 0.00 81 1013.5
20200331234611 33 46 5.0 12.0 0.00 0.00 0.00 81 1013.5
20200331234041 33 355 7.0 11.0 0.00 0.00 0.00 81 1013.6
20200331233542 33 9 6.0 12.0 0.00 0.00 0.00 82 1013.3
20200331233208 33 45 6.0 13.0 0.00 0.00 0.00 82 1013.3
20200331232607 33 5 7.0 13.0 0.00 0.00 0.00 81 1013.2
20200331232039 34 26 5.0 13.0 0.00 0.00 0.00 81 1013.3
20200331231628 34 103 6.0 10.0 0.00 0.00 0.00 81 1013.2
20200331231038 34 32 4.0 8.0 0.00 0.00 0.00 82 1013.4
20200331230536 34 81 1.0 8.0 0.00 0.00 0.00 81 1013.4
20200331230149 34 35 2.0 6.0 0.00 0.00 0.00 81 1013.4
20200331225041 34 70 2.0 4.0 0.00 0.00 0.00 80 1013.2
20200331224557 34 5 1.0 7.0 0.00 0.00 0.00 80 1013.1
20200331224039 34 52 3.0 7.0 0.00 0.00 0.00 80 1013.0
20200331223536 34 70 3.0 6.0 0.00 0.00 0.00 80 1013.0
20200331223104 34 77 1.0 13.0 0.00 0.00 0.00 80 1013.0
20200331222538 34 48 5.0 13.0 0.00 0.00 0.00 80 1013.0
20200331222033 35 98 5.0 11.0 0.00 0.00 0.00 80 1012.9
20200331221606 35 32 2.0 10.0 0.00 0.00 0.00 80 1012.9
20200331221039 35 140 3.0 14.0 0.00 0.00 0.00 79 1012.7
20200331220534 35 48 5.0 14.0 0.00 0.00 0.00 80 1012.8
20200331220103 35 49 5.0 12.0 0.00 0.00 0.00 80 1012.8
20200331215030 35 45 3.0 12.0 0.00 0.00 0.00 79 1012.7
20200331214534 35 40 6.0 12.0 0.00 0.00 0.00 79 1012.6
20200331214031 36 32 3.0 16.0 0.00 0.00 0.00 79 1012.5
20200331213527 36 51 6.0 16.0 0.00 0.00 0.00 78 1012.5
20200331213105 36 42 6.0 15.0 0.00 0.00 0.00 78 1012.5
20200331212526 36 31 4.0 15.0 0.00 0.00 0.00 78 1012.6
20200331212028 36 44 5.0 11.0 0.00 0.00 0.00 78 1012.4
20200331211528 36 52 3.0 14.0 0.00 0.00 0.00 78 1012.3
20200331211028 36 62 9.0 14.0 0.00 0.00 0.00 78 1012.3
20200331210524 36 44 7.0 12.0 0.00 0.00 0.00 78 1012.3
20200331210023 36 39 5.0 12.0 0.00 0.00 0.00 77 1012.3
20200331205033 37 74 4.0 8.0 0.00 0.00 0.00 77 1012.2
20200331204520 37 129 2.0 8.0 0.00 0.00 0.00 78 1012.1
20200331204021 37 52 2.0 10.0 0.00 0.00 0.00 79 1012.0
20200331203519 36 69 6.0 10.0 0.00 0.00 0.00 79 1012.1
20200331203025 37 45 3.0 9.0 0.00 0.00 0.00 80 1012.1
20200331202521 37 72 3.0 9.0 0.00 0.00 0.00 80 1012.1
20200331202016 37 59 4.0 9.0 0.00 0.00 0.00 79 1012.1
20200331201528 37 68 3.0 10.0 0.00 0.00 0.00 79 1012.2
20200331201029 37 63 5.0 10.0 0.00 0.00 0.00 78 1012.2
20200331200514 38 80 3.0 10.0 0.00 0.00 0.00 78 1012.3
20200331195011 38 30 4.0 11.0 0.00 0.00 0.00 78 1012.1
20200331194512 38 72 5.0 10.0 0.00 0.00 0.00 77 1012.1
20200331193512 39 101 2.0 10.0 0.00 0.00 0.00 73 1012.0
20200331193015 39 105 5.0 15.0 0.00 0.00 0.00 72 1012.0
20200331192516 39 49 9.0 15.0 0.00 0.00 0.00 72 1011.9
20200331192012 39 105 3.0 14.0 0.00 0.00 0.00 71 1011.9
20200331191513 40 19 8.0 14.0 0.00 0.00 0.00 69 1011.9
20200331191011 40 54 3.0 13.0 0.00 0.00 0.00 69 1011.7
20200331190510 40 67 5.0 15.0 0.00 0.00 0.00 69 1011.7
20200331190014 40 70 8.0 15.0 0.00 0.00 0.00 69 1011.6
20200331185012 40 92 5.0 12.0 0.00 0.00 0.00 69 1011.7
20200331184508 40 119 4.0 10.0 0.00 0.00 0.00 69 1011.7
20200331184014 40 34 5.0 12.0 0.00 0.00 0.00 69 1011.8
20200331183506 40 34 5.0 12.0 0.00 0.00 0.00 69 1011.8
20200331183006 40 94 7.0 12.0 0.00 0.00 0.00 70 1011.7
20200331182504 40 53 4.0 10.0 0.00 0.00 0.00 70 1011.8
20200331182003 39 42 5.0 14.0 0.00 0.00 0.00 72 1011.8
20200331181503 39 5 6.0 14.0 0.00 0.00 0.00 71 1011.7
20200331181005 39 60 7.0 13.0 0.00 0.00 0.00 72 1011.7
20200331180501 39 68 8.0 13.0 0.00 0.00 0.00 72 1011.8
20200331175100 39 62 6.0 12.0 0.00 0.00 0.00 70 1011.8
20200331174616 39 77 6.0 12.0 0.00 0.00 0.00 70 1011.9
20200331174058 40 58 4.0 12.0 0.00 0.00 0.00 70 1011.9
20200331173558 39 27 4.0 12.0 0.00 0.00 0.00 71 1011.8
20200331172607 39 42 5.0 11.0 0.00 0.00 0.00 71 1011.8
20200331172056 39 62 7.0 13.0 0.00 0.00 0.00 70 1011.9
20200331171744 40 55 8.0 13.0 0.00 0.00 0.00 69 1012.0
20200331171100 40 82 5.0 14.0 0.00 0.00 0.00 70 1012.0
20200331170554 39 61 6.0 14.0 0.00 0.00 0.00 70 1012.0
20200331170137 40 49 5.0 12.0 0.00 0.00 0.00 69 1012.0
20200331165051 40 47 5.0 11.0 0.00 0.00 0.00 70 1012.0
20200331164633 40 76 5.0 10.0 0.00 0.00 0.00 70 1011.9
20200331164105 40 77 4.0 13.0 0.00 0.00 0.00 70 1012.0
20200331163555 40 80 6.0 13.0 0.00 0.00 0.00 70 1012.0
20200331162549 39 48 5.0 15.0 0.00 0.00 0.00 71 1012.1
20200331162113 39 66 10.0 15.0 0.00 0.00 0.00 70 1012.0
20200331161550 40 63 3.0 11.0 0.00 0.00 0.00 70 1012.0
20200331161051 40 100 4.0 10.0 0.00 0.00 0.00 71 1011.9
20200331160546 40 44 5.0 14.0 0.00 0.00 0.00 70 1012.0
20200331160126 40 117 3.0 14.0 0.00 0.00 0.00 69 1011.9
20200331155042 39 54 6.0 14.0 0.00 0.00 0.00 70 1011.9
20200331154553 39 32 5.0 14.0 0.00 0.00 0.00 70 1011.8
20200331154041 39 152 6.0 14.0 0.00 0.00 0.00 71 1011.8
20200331153544 40 53 5.0 12.0 0.00 0.00 0.00 69 1012.0
20200331153152 40 35 6.0 12.0 0.00 0.00 0.00 69 1011.9
20200331152543 40 70 4.0 12.0 0.00 0.00 0.00 70 1012.0
20200331152038 39 55 7.0 15.0 0.00 0.00 0.00 69 1012.0
20200331151554 39 31 8.0 15.0 0.00 0.00 0.00 71 1012.1
20200331151036 39 66 8.0 15.0 0.00 0.00 0.00 69 1012.1
20200331150535 40 69 5.0 15.0 0.00 0.00 0.00 69 1012.3
20200331150133 39 92 6.0 14.0 0.00 0.00 0.00 71 1012.2
20200331145036 39 53 4.0 14.0 0.00 0.00 0.00 71 1012.2
20200331144553 39 86 6.0 14.0 0.00 0.00 0.00 70 1012.3
20200331144030 39 41 6.0 12.0 0.00 0.00 0.00 70 1012.3
20200331143536 39 69 6.0 12.0 0.00 0.00 0.00 71 1012.5
20200331143050 38 15 3.0 11.0 0.00 0.00 0.00 72 1012.4
20200331142528 38 39 7.0 15.0 0.00 0.00 0.00 71 1012.3
20200331142028 38 20 6.0 15.0 0.00 0.00 0.00 71 1012.3
20200331141527 40 39 6.0 12.0 0.00 0.00 0.00 68 1012.3
20200331141026 39 10 3.0 13.0 0.00 0.00 0.00 69 1012.3
20200331140530 39 16 6.0 13.0 0.00 0.00 0.00 70 1012.4
20200331140023 38 68 6.0 13.0 0.00 0.00 0.00 72 1012.3
20200331135024 38 329 8.0 12.0 0.00 0.00 0.00 71 1012.4
20200331134603 37 329 7.0 14.0 0.00 0.00 0.00 72 1012.4
20200331134019 37 43 8.0 14.0 0.00 0.00 0.00 73 1012.5
20200331133519 36 24 7.0 13.0 0.00 0.00 0.00 73 1012.5
20200331133027 36 9 8.0 11.0 0.00 0.00 0.00 73 1012.6
20200331132527 37 18 8.0 12.0 0.00 0.00 0.00 73 1012.7
20200331132013 37 53 6.0 12.0 0.00 0.00 0.00 73 1012.7
20200331131511 36 34 5.0 11.0 0.00 0.00 0.00 73 1012.7
20200331131015 37 76 4.0 11.0 0.00 0.00 0.00 73 1012.8
20200331130510 36 117 6.0 11.0 0.00 0.00 0.00 74 1012.8
20200331130023 36 23 7.0 12.0 0.00 0.00 0.00 74 1012.9
20200331125004 35 19 5.0 10.0 0.00 0.00 0.00 74 1013.0
20200331124501 35 14 6.0 15.0 0.00 0.00 0.00 74 1013.0
20200331124106 35 5 6.0 15.0 0.00 0.00 0.00 74 1013.0
20200331123600 35 51 4.0 14.0 0.00 0.00 0.00 74 1013.1
20200331123147 35 29 5.0 10.0 0.00 0.00 0.00 73 1013.1
20200331122558 35 41 4.0 10.0 0.00 0.00 0.00 73 1013.1
20200331122106 35 9 3.0 9.0 0.00 0.00 0.00 73 1013.2
20200331121620 35 5 5.0 9.0 0.00 0.00 0.00 73 1013.2
20200331121056 35 14 4.0 9.0 0.00 0.00 0.00 74 1013.2
20200331120147 34 34 4.0 9.0 0.00 0.00 0.00 75 1013.2
20200331115552 34 9 4.0 10.0 0.00 0.00 0.00 76 1013.2
20200331115055 34 13 5.0 10.0 0.00 0.00 0.00 75 1013.2
20200331114725 34 350 6.0 10.0 0.00 0.00 0.00 76 1013.2